Flag for Canada Weather past 2 weeks in Thunder Bay, Ontario, Canada

Now
-8 °F

Passing clouds.


Feels Like: -21 °F
Forecast: -5 / 19 °F
Wind: 6 mph from West

Location: Thunder Bay

Current Time: Feb 28, 2015 at 2:00:11 AM

Latest Report: Feb 28, 2015 at 1:00 AM


Visibility: 15 mi

Pressure: 30.42 "Hg

Humidity: 70%

Dew point: -15 °F

Location of Thunder BayLocation

Historic Weather in Thunder Bay — Graph

°F

Thunder Bay temperature yesterday

Maximum temperature yesterday: 21 °F (at 5:00 PM)
Minimum temperature yesterday: -17 °F (at 7:00 AM)
Average temperature yesterday: 4 °F

Past Weeks' High & Low Weather Summary

 TemperatureHumidityPressure
High21 °F (Feb 27, 5:00 PM)92% (Feb 17, 1:00 AM)30.80 "Hg (Feb 17, 1:00 AM)
Low-35 °F (Feb 15, 6:00 AM)27% (Feb 27, 5:00 PM)29.41 "Hg (Feb 24, 5:00 AM)
Average-5 °F65%30.20 "Hg
* Reported Feb 13 1:00 AM — Feb 28 1:00 AM, Thunder Bay, Weather by CustomWeather, © 2015

Note: Actual official high and low records may vary slightly from our data, if they occured in-between our weather recording intervals... More about our weather records

Advertising

Thunder Bay weather history for previous 24 hours

 ConditionsComfort  
Time TempWeatherWind HumidityBarometerVisibility
1:00 AM
Sat, Feb 28
-8 °FPassing clouds.6 mph70%30.42 "Hg15 mi
12:00 AM0 °FPassing clouds.6 mph60%30.42 "Hg15 mi
11:00 PM
Fri, Feb 27
1 °FPassing clouds.7 mph60%30.41 "Hg15 mi
10:00 PM3 °FPassing clouds.5 mph55%30.41 "Hg15 mi
9:00 PM12 °FPartly cloudy.6 mph37%30.40 "Hg15 mi
8:00 PM12 °FPassing clouds.9 mph40%30.39 "Hg15 mi
7:00 PM14 °FPassing clouds.8 mph37%30.37 "Hg20 mi
6:00 PM19 °FPassing clouds.12 mph29%30.36 "Hg20 mi
5:00 PM21 °FPassing clouds.15 mph27%30.36 "Hg20 mi
4:00 PM19 °FPassing clouds.13 mph32%30.36 "Hg20 mi
3:00 PM19 °FPassing clouds.10 mph29%30.37 "Hg20 mi
2:00 PM18 °FPassing clouds.15 mph32%30.38 "Hg20 mi
1:00 PM14 °FPassing clouds.13 mph37%30.41 "Hg20 mi
12:00 PM10 °FPassing clouds.7 mph44%30.43 "Hg20 mi
11:00 AM3 °FPassing clouds.10 mph55%30.43 "Hg20 mi
10:00 AM0 °FPassing clouds.10 mph54%30.45 "Hg20 mi
9:00 AM-6 °FPassing clouds.8 mph70%30.45 "Hg20 mi
8:00 AM-17 °FSunny.3 mph83%30.44 "Hg20 mi
7:00 AM-17 °FPassing clouds.5 mph76%30.45 "Hg20 mi
6:00 AM-13 °FClear.6 mph76%30.43 "Hg15 mi
5:00 AM-8 °FClear.6 mph70%30.42 "Hg15 mi
4:00 AM-6 °FClear.6 mph64%30.41 "Hg15 mi
3:00 AM-6 °FClear.7 mph70%30.41 "Hg15 mi
2:00 AM-6 °FClear.8 mph70%30.40 "Hg15 mi
Weather by CustomWeather, © 2015

See weather overviewHow to use our weather pages